レモン-パンスターズ彗星

437P/Lemmon-PanSTARRS (2022)

English version
Home page
Updated on March 7, 2023

---------------------------------------------------------------------

・ プロフィール

符号 437P/2021 V3
発見日 2021年11月1日
発見光度 21.9等
発見者 Pan-STARRS 1 telescope (Haleakala)

・ 軌道要素

Epoch 2023 Feb. 25.0 TT = JDT 2460000.5
T 2022 Aug. 18.65184 TT                                 Rudenko
q   3.4002536            (2000.0)            P               Q
n   0.10116618     Peri.  206.75807     -0.04484402     -0.99726714
a   4.5615504      Node   245.86099     +0.92769619     -0.01976652
e   0.2545838      Incl.    3.68894     +0.37063296     -0.07118670
P   9.74
>From 101 observations 2004 Mar. 17-2021 Dec. 7, mean residual 0".4.

・ 光度変化

        m1 = 13.0 + 5 logΔ + 10.0 log r

---------------------------------------------------------------------

軌道要素はM.P.E.C. 2023-B57に掲載されたものです。
光度グラフはComet for Windowsで作成したものです。

---------------------------------------------------------------------

Copyright(C) Seiichi Yoshida (comet@aerith.net). All rights reserved.